#timestamp,LO_Frequency,Hit,StdDev 
1516284015.3,286046998.8,N
1516284035.2,286047000.6,N
1516284055.0,286046999.6,N
1516284055.9,286046999.6,N
1516284075.8,286046999.6,N
1516284095.6,286046998.9,N
1516284115.4,286046996.9,N
1516284135.3,286046999.3,N
1516284155.1,286046999.2,N
1516284175.9,286046999.0,N
1516284195.7,286046997.1,N
1516284215.5,286046996.6,N
1516284235.4,286046998.5,N
1516284255.2,286047001.0,N
1516284275.0,286047000.0,N
1516284276.0,286047000.0,N
1516284295.8,286047001.6,N
1516284315.6,286047005.8,Y
1516284335.5,286047005.5,P
1516284355.3,286047003.7,N
1516284375.1,286047004.0,N
1516284395.9,286047003.7,N
1516284415.7,286047004.3,N
1516284435.6,286047004.3,N
1516284455.4,286047004.3,N
1516284475.2,286047001.8,N
1516284495.1,286047003.8,N
1516284496.0,286047003.8,N
1516284515.8,286047003.1,N
1516284535.7,286047001.8,N
1516284555.5,286047004.0,N
1516284575.3,286047001.6,N
1516284595.2,286047002.7,N
1516284615.0,286047000.7,N
1516284615.9,286047000.7,N
1516284635.8,286047002.3,N
1516284655.6,286047000.0,N
1516284675.4,286047000.2,N
1516284695.3,286047002.5,N
1516284715.1,286047000.5,N
1516284735.8,286047000.8,N
1516284755.7,286046999.1,N
1516284775.5,286047000.0,N
1516284795.4,286047001.2,N
1516284815.2,286046999.4,N
1516284835.0,286046998.8,N
1516284835.9,286046998.8,N
1516284855.8,286046998.6,N
1516284875.6,286046998.2,N
1516284895.4,286046998.8,N
1516284915.3,286047000.3,N
1516284935.1,286047002.7,N
1516284955.9,286047000.8,N
1516284975.7,286047000.1,N
1516284995.5,286047004.4,N
1516285015.4,286047003.9,N
1516285035.2,286047003.9,N
1516285055.0,286047001.7,N
1516285055.9,286047001.7,N
1516285075.8,286047002.4,N
1516285095.6,286047002.0,N
1516285115.5,286047002.1,N
1516285135.3,286047002.8,N
1516285155.2,286046999.9,N
1516285175.0,286047002.7,N
1516285175.9,286047002.7,N
1516285195.8,286046999.9,N
1516285215.6,286047000.6,N
1516285235.4,286047000.0,N
1516285255.3,286047001.4,N
1516285275.1,286047000.5,N
1516285295.9,286047001.4,N
1516285315.7,286047000.9,N
1516285335.5,286046998.3,N
1516285355.4,286046999.7,N
1516285375.2,286047000.6,N
1516285395.0,286047000.0,N
1516285395.9,286047000.0,N
1516285415.8,286047000.6,N
1516285435.6,286046999.7,N
1516285455.5,286046998.1,N
1516285475.3,286047002.7,N
1516285495.1,286047002.4,N
1516285515.9,286047001.6,N
1516285535.7,286047001.3,N
1516285555.5,286047001.3,N
1516285575.4,286047002.1,N
1516285595.2,286047002.0,N
1516285615.1,286047001.4,N
1516285616.0,286047001.4,N
1516285635.8,286047004.0,Y
1516285655.6,286047002.1,P
1516285675.5,286047002.2,P
1516285695.3,286047000.4,N
1516285715.2,286046998.1,N
1516285735.9,286046998.5,N
1516285755.7,286047000.3,N
1516285775.6,286047001.6,N
1516285795.4,286047002.2,N
1516285815.2,286047001.8,N
1516285835.1,286047007.5,Y
1516285836.0,286047007.5,P
1516285855.8,286047007.0,N
1516285875.7,286047007.5,N
1516285895.5,286047003.5,N
1516285915.3,286047004.1,N
1516285935.2,286047004.2,N
1516285955.0,286047003.9,N
1516285955.9,286047003.9,N
1516285975.8,286047003.6,N
1516285995.6,286047004.0,N
1516286015.4,286047000.0,N
1516286035.3,286047000.3,N
1516286055.1,286047002.7,N
1516286075.8,286047003.4,N
1516286095.7,286047001.9,N
1516286115.5,286047002.2,N
1516286135.4,286047000.3,N
1516286155.2,286047001.8,N
1516286175.0,286047004.2,N
1516286175.9,286047004.2,N
1516286195.8,286047001.9,N
1516286215.6,286047002.7,N
1516286235.4,286046999.9,N
1516286255.3,286047001.0,N
1516286275.1,286046999.7,N
1516286295.9,286046999.8,N
1516286315.7,286046999.8,N
1516286335.5,286046999.8,N
1516286355.4,286047002.6,N
1516286375.2,286047002.8,N
1516286395.0,286047002.8,N
1516286395.9,286047002.8,N
1516286415.8,286047000.9,N
1516286435.6,286047001.0,N
1516286455.5,286046998.6,N
1516286475.3,286047001.1,N
1516286495.1,286047000.9,N
1516286515.9,286047000.3,N
1516286535.7,286047000.0,N
1516286555.5,286047000.3,N
1516286575.4,286047000.1,N
1516286595.2,286047002.3,N
1516286615.1,286047002.5,N
1516286616.0,286047002.5,N
1516286635.8,286047000.4,N
1516286655.7,286046999.9,N
1516286675.5,286047002.1,N
1516286695.3,286047002.3,N
1516286715.2,286047002.5,N
1516286735.4,286047004.2,Y
1516286755.2,286047002.4,P
1516286775.0,286047002.6,P
1516286776.0,286047002.6,P
1516286795.8,286047001.8,Y
1516286815.6,286047001.2,P
1516286835.5,286046999.4,N
1516286855.3,286046998.6,N
1516286875.1,286046998.8,N
1516286895.9,286047002.0,N
1516286915.7,286047004.3,N
1516286935.6,286047004.4,N
1516286955.4,286047002.0,N
1516286975.2,286047000.3,N
1516286995.1,286047002.4,N
1516286996.0,286047002.4,N
1516287015.8,286047002.8,N
1516287035.6,286047000.8,N
1516287055.5,286046998.5,N
1516287075.3,286046998.8,N
1516287095.2,286046998.2,N
1516287115.9,286046999.4,N
1516287135.7,286046999.5,N
1516287155.6,286046997.5,N
1516287175.4,286046996.6,N
1516287195.2,286046997.0,N
1516287215.1,286046997.2,N
1516287216.0,286046997.2,N
1516287235.8,286046997.2,N
1516287255.7,286046995.8,N
1516287305.5,286046995.4,E
1516287315.5,286046999.1,N
1516287335.3,286047000.9,P
1516287355.1,286047002.4,N
1516287375.9,286047000.2,N
1516287395.7,286046998.7,N
1516287415.5,286047000.9,N
1516287435.4,286047002.0,N
1516287455.2,286047001.9,N
1516287475.1,286047000.1,N
1516287476.0,286047000.1,N
1516287495.8,286046999.8,N
1516287515.6,286047000.2,N
1516287535.5,286046999.7,N
1516287555.3,286047001.9,N
1516287575.1,286047001.8,N
1516287595.9,286047002.2,N
